This is the latest recevied weather packets stored in our database for station/object VA6BAX-13. If no packets are shown the sender has not sent any weather packets the latest 10 day(s).
| Time | Temp. | Humidity | Pressure | Rain* | Wind** | Luminosity | Snow |
|---|---|---|---|---|---|---|---|
| 1788373609 | 22.22° C | 60% | 1004.8 hPa | - | - | - | - |
| 1788373037 | 21.67° C | 64% | 1004.9 hPa | - | - | - | - |
| 1788373008 | 21.67° C | 63% | 1004.9 hPa | - | - | - | - |
| 1788372443 | 21.11° C | 64% | 1005 hPa | - | - | - | - |
| 1788372408 | 21.11° C | 65% | 1005 hPa | - | - | - | - |
| 1788371837 | 20.56° C | 67% | 1004.9 hPa | - | - | - | - |
| 1788371809 | 20.56° C | 69% | 1004.9 hPa | - | - | - | - |
| 1788371237 | 20° C | 71% | 1004.8 hPa | - | - | - | - |
| 1788371209 | 20° C | 70% | 1004.8 hPa | - | - | - | - |
| 1788370637 | 20.56° C | 70% | 1004.7 hPa | - | - | - | - |
| 1788370608 | 20.56° C | 70% | 1004.7 hPa | - | - | - | - |
| 1788370037 | 20° C | 72% | 1004.5 hPa | - | - | - | - |
| 1788370008 | 20° C | 73% | 1004.5 hPa | - | - | - | - |
| 1788369437 | 19.44° C | 74% | 1004.5 hPa | - | - | - | - |
| 1788369408 | 19.44° C | 74% | 1004.5 hPa | - | - | - | - |
| 1788368837 | 20° C | 72% | 1004.4 hPa | - | - | - | - |
| 1788368808 | 20° C | 72% | 1004.3 hPa | - | - | - | - |
| 1788368237 | 20° C | 60% | 1004.2 hPa | - | - | - | - |
| 1788368210 | 20° C | 60% | 1004.2 hPa | - | - | - | - |
| 1788367609 | 20° C | 66% | 1004 hPa | - | - | - | - |
| 1788367038 | 19.44° C | 72% | 1004 hPa | - | - | - | - |
| 1788367009 | 19.44° C | 71% | 1004 hPa | - | - | - | - |
| 1788366409 | 20° C | 72% | 1004.1 hPa | - | - | - | - |
| 1788365809 | 20° C | 68% | 1004.1 hPa | - | - | - | - |
| 1788365238 | 18.89° C | 76% | 1004.1 hPa | - | - | - | - |
* Rain since midnight (hover to see other rain measurements)
** Current wind speed in m/s (hover to see current wind gust speed)